Regional Weather Roundup
Issued by NWS

Home | Current Version | Previous Version | Text Only | Print | Product List | Glossary On
Versions: 1 2 3 4 5 6 7 8 9 10 11 12 13 14 15 16 17 18 19 20 21 22 23 24 25 26 27 28 29 30 31 32 33 34 35 36 37 38 39 40 41 42 43 44 45 46 47 48 49 50
000
ASUS44 KLUB 262310
RWRTX
WEST TEXAS WEATHER ROUNDUP
NATIONAL WEATHER SERVICE LUBBOCK TX
600 PM CDT MON JUN 26 2017

NOTE: "FAIR" INDICATES FEW OR NO CLOUDS BELOW 12,000 FEET WITH NO
SIGNIFICANT WEATHER AND/OR OBSTRUCTIONS TO VISIBILITY.

TXZ004-006>008-010-012-014-016-OKZ002-270000-
TEXAS PANHANDLE/OKLAHOMA PANHANDLE

CITY           SKY/WX    TMP DP  RH WIND       PRES   REMARKS
AMARILLO       MOSUNNY   84  57  39 S9G20     30.12F
BORGER         PTSUNNY   88  53  30 CALM      30.07F
CANADIAN       MOSUNNY   90  59  35 N7        30.04F
DALHART        SUNNY     88  56  33 S14G20    30.12F
DUMAS          SUNNY     85  53  33 SW10      30.11F
HEREFORD       SUNNY     84  56  38 S9        30.14F
PAMPA          MOSUNNY   90  53  28 SW7       30.10S
PERRYTON       SUNNY     90  55  30 SW3       30.06F
$$

TXZ026-029-035-045-048-270000-
SOUTHERN PANHANDLE/SOUTH PLAINS/ROLLING PLAINS

CITY           SKY/WX    TMP DP  RH WIND       PRES   REMARKS
CHILDRESS      SUNNY     90  59  35 E6        30.05F
SEMINOLE       MOSUNNY   82  62  51 NE6       30.12F
LUBBOCK        PTSUNNY   83  62  49 S10       30.11F
PLAINVIEW      MOSUNNY   81  58  46 S9        30.11F
SNYDER         TSTM      67  65  93 S8        30.12R
$$

TXZ052-054-060>062-072-078-127-140-154-169-270000-
PERMIAN BASIN/CONCHO VALLEY/BIG COUNTRY/EDWARDS PLATEAU

CITY           SKY/WX    TMP DP  RH WIND       PRES   REMARKS
ABILENE        LGT RAIN  78  69  73 SW10      30.06F
BIG SPRING     CLOUDY    80  62  53 CALM      30.11F
BROWNWOOD      PTSUNNY   82  70  65 E9        30.03S
JUNCTION       LGT RAIN  82  68  62 NW8       30.03R
MIDLAND        PTSUNNY   81  66  60 E10       30.09F
ODESSA         CLOUDY    81  66  60 E14       30.10F
SAN ANGELO     CLOUDY    76  67  73 E16       30.08R
SONORA         MOSUNNY   86  61  42 E8        30.07S
SWEETWATER     CLOUDY    73  66  79 S8        30.10F
WINK           SUNNY     88  60  38 S6        30.04F
$$

TXZ055-058-074-075-080-082-270000-
FAR WEST/SOUTHWEST MOUNTAINS/TRANS PECOS

CITY           SKY/WX    TMP DP  RH WIND       PRES   REMARKS
ALPINE         CLOUDY    81  56  42 S7        30.20F
DRYDEN           N/A     93  60  33 E12G17    29.99F
EL PASO        MOSUNNY   92  57  30 NE9       30.06F
FORT STOCKTON  SUNNY     90  60  36 NE15      30.05F
MARFA          CLOUDY    75  60  59 SE8       30.20F
PECOS          MOSUNNY   91  59  34 E6        30.03F
PRESIDIO       FAIR      92  57  31 NE9       30.02F
$$

TXZ014-016-019-021>030-083-270000
TEXAS TECH WEST TEXAS MESONET/TEXAS PANHANDLE/NORTHERN SOUTH PLAINS

CITY           SKY/WX    TMP DP  RH WIND       PRES   REMARKS
ABERNATHY 5ENE   N/A     81  61  50 SE8       30.13F
AMARILLO 9NNE    N/A     85  59  41 S8        30.09F
AMARILLO 7SSE    N/A     84  57  39 SE9       30.13F
AMHERST 1NE      N/A     81  58  44 SE9       30.14F
BOOTLEG 11WNW    N/A     82  58  43 SE13      30.18F
CAPROCK CYN SP   N/A     85  57  37 SE9       30.08F
CHILDRESS 2NNE   N/A     87  58  36 SE7       30.04F
CLARENDON 2WSW   N/A     83  59  43 S3        30.08F
CLAUDE 12SW      N/A     83  56  39 SE5       30.12F
DIMMITT 2NE      N/A     80  58  47 SE10      30.15F
FLOYDADA 2NNE    N/A     83  58  41 SE8       30.11F
FRIONA 2NE       N/A     81  59  47 SE10      30.16F
GOODLETT 3W      N/A     86  62  43 E7        30.02S
HART 3N          N/A     81  58  46 SE9       30.14F
HEREFORD 2NW     N/A     82  55  39 S10       30.14F
MCLEAN 1E        N/A     87  55  33 NE5       30.06F
MEMPHIS 1NE      N/A     90  56  30 NE6       30.03F
MULESHOE 2SSW    N/A     81  59  46 SE13      30.14F
OLTON 6S         N/A     80  59  47 SE9       30.13F
PALO DURO SP     N/A     85  58  39 S7        30.13F
PAMPA 2E         N/A     86  56  35 S7        30.09F
PLAINVIEW 1S     N/A     82  58  44 SE8       30.12F
SILVERTON 7ESE   N/A     84  56  37 SE6       30.11F
TULIA 2ENE       N/A     82  59  44 SE8       30.13F
TURKEY 2WSW      N/A     87  57  36 S2        30.06F
UMBARGER 3NNE    N/A     83  56  39 SE7       30.14F
$$

TXZ033>036-039>041-045>048-270000
TEXAS TECH WEST TEXAS MESONET/SOUTH PLAINS

CITY           SKY/WX    TMP DP  RH WIND       PRES   REMARKS
AIKEN 3WSW       N/A     82  63  52 SE9       30.13F
ANDREWS 2NE      N/A     80  63  55 E9        30.11F
ANTON 6SSW       N/A     80  62  55 SE7       30.12F
BROWNFIELD 2S    N/A     81  59  47 E3        30.12S
DENVR CTY 7WNW   N/A     81  53  37 NE7       30.13S
GAIL 2ESE        N/A     85  57  39 E2        30.07F
LAMESA 2SE       N/A     80  60  49 SE2       30.11F
LEVELLAND 4S     N/A     80  57  46 E5        30.14F
LUBBOCK 3WNW     N/A     83  59  43 SE8       30.12F
MORTON 1ENE      N/A     80  60  50 E6        30.14F
ODONNELL 1N      N/A     81  56  41 SE5       30.10F
PLAINS 3N        N/A     80  56  43 NE9       30.14S
RALLS 1SE        N/A     82  61  48 SE5       30.11F
REESE CENTER     N/A     81  56  42 SE9       30.12F
SEAGRAVES 1SW    N/A     81  61  50 E3        30.12S
SEMINOLE 2NNE    N/A     80  62  54 NE10      30.11F
SLATON 2NE       N/A     83  58  42 S7        30.11F
SNYDER 3E        N/A     70  65  82 SW7       30.09F
SUNDOWN 8SW      N/A     81  56  42 SE7       30.13F
TAHOKA 3NNE      N/A     82  58  43 S3        30.11F
WOLFFORTH 6SSW   N/A     81  58  46 E3        30.13F
$$

TXZ031-032-036>038-042>044-270000-
TEXAS TECH WEST TEXAS MESONET/ROLLING PLAINS

CITY           SKY/WX    TMP DP  RH WIND       PRES   REMARKS
ASPERMONT 3NE    N/A     91  64  41 E8        30.03F
FLUVANNA 3WNW    N/A     79  65  62 E15       30.09S
GRAHAM 5SSW      N/A     83  57  40 NE7       30.09F
GUTHRIE 10WSW    N/A     89  58  35 NE6       30.03F
HASKELL 1NW      N/A     85  65  51 E7        30.03F
JAYTON 1SSE      N/A     87  59  37 E6        30.04F
KNOX CITY 3NW    N/A     89  62  39 E7        30.02F
LK A HENRY 1NW   N/A     85  63  46 E15       30.06F
NORTHFIELD 1S    N/A     88  60  39 E6        30.04F
PADUCAH 10SW     N/A     89  55  30 N7        30.04F
POST 1NE         N/A     86  57  37 S5        30.07F
RRING SPRGS 3N   N/A     86  59  39 E8        30.08S
SEYMOUR 3NW      N/A     85  65  51 E8        30.02F
SPUR 1W          N/A     87  59  39 S5        30.05F
WEINERT 2NNE     N/A     87  67  50 SE7       30.03F
WHITE RVR 6NE    N/A     86  58  38 SE3       30.07F
$$

TXZ052-054-060>062-072-078-127-140-154-169-270000-
TEXAS TECH WEST TEXAS MESONET/PERMIAN BASIN/
CONCHO VALLEY/BIG COUNTRY/EDWARDS PLATEAU

CITY           SKY/WX    TMP DP  RH WIND       PRES   REMARKS
JUNCTION 1SSW    N/A     77  70  79 NW7       30.04R
MERTZON 3NNE     N/A     80  65  59 NE13      30.09R
SAN ANGELO 7NW   N/A     77  63  61 SE12      30.09R
STRLNG CT 4WSW   N/A     79  64  60 NE3       30.08F
ST LAWRNCE 5SW   N/A     80  62  54 NW5       30.09S
SWEETWATR 11SW   N/A     74  65  73 E3        30.10S
WALL 1E        LGT RAIN  69  68  96 NE5       30.12R
$$

TXZ055-058-074-075-080-082-270000-
TEXAS TECH WEST TEXAS MESONET/FAR WEST/SOUTHWEST MOUNTAINS/TRANS PECOS

CITY           SKY/WX    TMP DP  RH WIND       PRES   REMARKS
PRSMN GAP BBNP   N/A     91  56  30 NE12      30.02F
GUADLPE MTN NP   N/A     75  57  53 NE6       30.24F
$$




USA.gov is the U.S. government's official web portal to all federal, state and local government web resources and services.